Skip Page Navigation
NASA JPL Caltech
NASA Logo - Jet Propulsion Laboratory + View the NASA Portal
+ Center for Near-Earth Object Studies
JPL Home Earth Solar System Stars & Galaxies Technology
JPL Solar System Dynamics
BODIES ORBITS EPHEMERIDES TOOLS PHYSICAL DATA DISCOVERY FAQ SITE MAP
IMPORTANT: The SSD Announcement email list is now available. Major changes are coming in the near future, including possible hostname and/or URL changes. To be notified of such changes, subscribe to this email list.

Please visit this page for more details.


JPL Small-Body Database Browser
Search: [ help ]  
48249 (2001 SY345)
Classification: Jupiter Trojan          SPK-ID: 2048249
Ephemeris | Orbit Diagram | Orbital Elements | Mission Design | Physical Parameters | Discovery Circumstances ]

[ show orbit diagram ]
Orbital Elements at Epoch 2459000.5 (2020-May-31.0) TDB
Reference: JPL 21 (heliocentric ecliptic J2000)
 Element Value Uncertainty (1-sigma)   Units 
e .01370633959840342 7.7419e-08  
a 5.110309698062776 8.907e-08 au
q 5.040266057888114 3.9027e-07 au
i 7.539674819775088 5.4566e-06 deg
node 100.4621933152441 4.8696e-05 deg
peri 266.9418098059207 0.00020994 deg
M 199.0510309376207 0.00020516 deg
tp 2460886.991947609619
(2025-Jul-30.49194761)
0.0024169 TDB
period 4219.58031229295
11.55
0.00011032
3.02e-07
d
yr
n .08531654177814983 2.2305e-09 deg/d
Q 5.180353338237439 9.0291e-08 au
  Orbit Determination Parameters
   # obs. used (total)      848  
   data-arc span      10756 days (29.45 yr)  
   first obs. used      1990-08-22  
   last obs. used      2020-02-02  
   planetary ephem.      DE431  
   SB-pert. ephem.      SB431-N16  
   condition code      0  
   norm. resid. RMS      .56641  
   source      ORB  
   producer      Otto Matic  
   solution date      2020-Feb-23 09:02:54  

Additional Information
 Earth MOID = 4.04707 au 
 Jupiter MOID = .069434 au 
 T_jup = 2.983 
[ show covariance matrix ]

Ephemeris | Orbit Diagram | Orbital Elements | Mission Design | Physical Parameters | Discovery Circumstances ]

Physical Parameter Table
Parameter Symbol Value Units Sigma Reference Notes
absolute magnitude H 12.1   n/a MPO351174  
diameter diameter 18.713 km 0.785 urn:nasa:pds:neowise_diameters_albedos::2.0[jupiter_trojans] (http://adsabs.harvard.edu/abs/2012ApJ...759...49G)  
geometric albedo albedo 0.080   0.008 urn:nasa:pds:neowise_diameters_albedos::2.0[jupiter_trojans] (http://adsabs.harvard.edu/abs/2012ApJ...759...49G)  

48249 (2001 SY345)          Discovered 2001-Sep-23 by NEAT at Haleakala
Reference: 20020921/Numbers.arcLast Updated: 2004-04-19
Ephemeris | Orbit Diagram | Orbital Elements | Mission Design | Physical Parameters | Discovery Circumstances ]
ABOUT SSD CREDITS/AWARDS PRIVACY/COPYRIGHT GLOSSARY LINKS
FirstGov 2020-Mar-31 14:31 UT
(server date/time)  
NASA Home Page
Site Manager:   Ryan S. Park
Webmaster  Alan B. Chamberlin